,,,PA_Meas_PMT16A,,PR_Meas_QMR101_102,,RH_Meas_QMH101,,SR_Meas_QMS101,,TA_Meas_QMH101,,GenWind,,GenWind,
date,time,status,PA,status,PR,status,RH,status,SR,status,TA,status,DirAvg,status,SpdAvg,
2008-09-21, 00:00:04,VALID,1004.2,VALID,0,VALID,95.4907,VALID,0,VALID,23.3727,VALID,276,VALID,0.0429688,
2008-09-21, 00:01:04,VALID,1004.18,VALID,0,VALID,95.4831,VALID,0,VALID,23.332,VALID,276,VALID,0.0867188,
2008-09-21, 00:02:04,VALID,1004.18,VALID,0,VALID,95.3991,VALID,0.100563,VALID,23.3337,VALID,276,VALID,0.177344,
2008-09-21, 00:03:04,VALID,1004.15,VALID,0,VALID,95.3991,VALID,0,VALID,23.3143,VALID,276,VALID,0.242578,
2008-09-21, 00:04:04,VALID,1004.13,VALID,0,VALID,95.4602,VALID,0,VALID,23.3143,VALID,276,VALID,0.148438,
2008-09-21, 00:05:04,VALID,1004.13,VALID,0,VALID,95.3457,VALID,0,VALID,23.2966,VALID,276,VALID,0.313672,
2008-09-21, 00:06:04,VALID,1004.08,VALID,0,VALID,95.2008,VALID,0,VALID,23.1975,VALID,276,VALID,0.305859,
2008-09-21, 00:07:04,VALID,1004.11,VALID,0,VALID,95.2084,VALID,0,VALID,23.1586,VALID,276,VALID,0.339063,
2008-09-21, 00:08:04,VALID,1004.08,VALID,0,VALID,95.2847,VALID,0.100563,VALID,23.1374,VALID,276,VALID,0.276953,
2008-09-21, 00:09:04,VALID,1004.08,VALID,0,VALID,95.3076,VALID,0.100563,VALID,23.1197,VALID,276,VALID,0.188281,
2008-09-21, 00:10:04,VALID,1004.1,VALID,0,VALID,95.3763,VALID,0,VALID,23.1409,VALID,276,VALID,0.230469,
2008-09-21, 00:11:05,VALID,1004.08,VALID,0,VALID,95.3686,VALID,0,VALID,23.1179,VALID,276,VALID,0.202734,
2008-09-21, 00:12:05,VALID,1004.08,VALID,0,VALID,95.4297,VALID,0,VALID,23.0984,VALID,276,VALID,0.175,
2008-09-21, 00:13:05,VALID,1004.08,VALID,0,VALID,95.5594,VALID,0.100563,VALID,23.1586,VALID,276,VALID,0,
2008-09-21, 00:14:05,VALID,1004.09,VALID,0,VALID,95.4678,VALID,0.100563,VALID,23.1374,VALID,276,VALID,0,
2008-09-21, 00:15:05,VALID,1004.04,VALID,0,VALID,95.3305,VALID,0,VALID,23.0807,VALID,276,VALID,0,
2008-09-21, 00:16:05,VALID,1004.03,VALID,0,VALID,95.3,VALID,0,VALID,23.0206,VALID,276,VALID,0.144922,
2008-09-21, 00:17:05,VALID,1004.01,VALID,0,VALID,95.2161,VALID,0.100563,VALID,23.0029,VALID,276,VALID,0.348828,
2008-09-21, 00:18:05,VALID,1004.02,VALID,0,VALID,95.2389,VALID,0.100563,VALID,22.9834,VALID,276,VALID,0.332422,
2008-09-21, 00:19:05,VALID,1003.99,VALID,0,VALID,95.2771,VALID,0.100563,VALID,22.9834,VALID,276,VALID,0.396875,
2008-09-21, 00:20:05,VALID,1004,VALID,0,VALID,95.3,VALID,0.100563,VALID,22.9445,VALID,276,VALID,0.482031,
2008-09-21, 00:21:05,VALID,1004.01,VALID,0,VALID,95.6585,VALID,0.100563,VALID,22.9834,VALID,276,VALID,0.375391,
2008-09-21, 00:22:05,VALID,1004.01,VALID,0,VALID,95.7882,VALID,0.100563,VALID,23.0807,VALID,276,VALID,0.407031,
2008-09-21, 00:23:05,VALID,1004.04,VALID,0,VALID,95.628,VALID,0.100563,VALID,23.0595,VALID,276,VALID,0.458203,
2008-09-21, 00:24:05,VALID,1004.01,VALID,0,VALID,95.4831,VALID,0,VALID,23.0613,VALID,276,VALID,0.366797,
2008-09-21, 00:25:05,VALID,1004.05,VALID,0,VALID,95.4983,VALID,0,VALID,23.0224,VALID,276,VALID,0.220313,
2008-09-21, 00:26:05,VALID,1004.09,VALID,0,VALID,95.4831,VALID,0,VALID,23.0418,VALID,276,VALID,0.0175781,
2008-09-21, 00:27:05,VALID,1004.07,VALID,0,VALID,95.4449,VALID,0.100563,VALID,23.0224,VALID,276,VALID,0,
2008-09-21, 00:28:05,VALID,1004.09,VALID,0,VALID,95.3839,VALID,0,VALID,22.964,VALID,276,VALID,0.0195313,
2008-09-21, 00:29:05,VALID,1004.08,VALID,0,VALID,95.4144,VALID,0,VALID,22.9622,VALID,276,VALID,0.00273437,
2008-09-21, 00:30:05,VALID,1004.09,VALID,0,VALID,95.422,VALID,0,VALID,22.9445,VALID,276,VALID,0.228516,
2008-09-21, 00:31:05,VALID,1004.08,VALID,0,VALID,95.3381,VALID,0.100563,VALID,22.8844,VALID,276,VALID,0.0757812,
2008-09-21, 00:32:05,VALID,1004.08,VALID,0,VALID,95.3305,VALID,0,VALID,22.8667,VALID,276,VALID,0.0628906,
2008-09-21, 00:33:05,VALID,1004.05,VALID,0,VALID,95.422,VALID,0,VALID,22.8667,VALID,276,VALID,0,
2008-09-21, 00:34:05,VALID,1004.04,VALID,0,VALID,95.5594,VALID,0,VALID,22.8861,VALID,276,VALID,0,
2008-09-21, 00:35:05,VALID,1004.05,VALID,0,VALID,95.7119,VALID,0,VALID,22.9251,VALID,276,VALID,0,
2008-09-21, 00:36:05,VALID,1004.02,VALID,0,VALID,95.7806,VALID,0,VALID,22.9817,VALID,276,VALID,0,
2008-09-21, 00:37:05,VALID,1004.04,VALID,0,VALID,95.8264,VALID,0.100563,VALID,23.0401,VALID,276,VALID,0,
2008-09-21, 00:38:05,VALID,1004.02,VALID,0,VALID,95.8187,VALID,0.100563,VALID,23.1197,VALID,276,VALID,0.25625,
2008-09-21, 00:39:05,VALID,1004.05,VALID,0,VALID,95.5212,VALID,0,VALID,23.0613,VALID,276,VALID,0.325781,
2008-09-21, 00:40:05,VALID,1004.02,VALID,0,VALID,95.3381,VALID,0,VALID,22.9834,VALID,276,VALID,0.312891,
2008-09-21, 00:41:05,VALID,1004.01,VALID,0,VALID,95.3991,VALID,0.100563,VALID,22.9445,VALID,276,VALID,0.417578,
2008-09-21, 00:42:05,VALID,1004.02,VALID,0,VALID,95.3991,VALID,0,VALID,22.9251,VALID,276,VALID,0.366016,
2008-09-21, 00:43:05,VALID,1004.02,VALID,0,VALID,95.4754,VALID,0,VALID,22.9251,VALID,276,VALID,0.29375,
2008-09-21, 00:44:05,VALID,1003.97,VALID,0,VALID,95.5136,VALID,0.100563,VALID,22.9251,VALID,276,VALID,0.271875,
2008-09-21, 00:45:05,VALID,1003.98,VALID,0,VALID,95.7501,VALID,0,VALID,22.9817,VALID,276,VALID,0.246484,
2008-09-21, 00:46:05,VALID,1003.98,VALID,0,VALID,95.773,VALID,0,VALID,23.0418,VALID,276,VALID,0,
2008-09-21, 00:47:05,VALID,1004.01,VALID,0,VALID,95.689,VALID,0,VALID,23.0418,VALID,276,VALID,0,
2008-09-21, 00:48:05,VALID,1004,VALID,0,VALID,95.6509,VALID,0,VALID,23.0418,VALID,276,VALID,0,
2008-09-21, 00:49:05,VALID,1003.98,VALID,0,VALID,95.6433,VALID,0.100563,VALID,23.0206,VALID,276,VALID,0,
2008-09-21, 00:50:05,VALID,1003.96,VALID,0,VALID,95.6204,VALID,0,VALID,23.0206,VALID,276,VALID,0.110156,
2008-09-21, 00:51:05,VALID,1003.94,VALID,0,VALID,95.5288,VALID,0.100563,VALID,23.0029,VALID,276,VALID,0,
2008-09-21, 00:52:05,VALID,1003.92,VALID,0,VALID,95.506,VALID,0,VALID,22.964,VALID,276,VALID,0.319922,
2008-09-21, 00:53:05,VALID,1003.89,VALID,0,VALID,95.5746,VALID,0,VALID,22.9622,VALID,279,VALID,0.400781,
2008-09-21, 00:54:05,VALID,1003.87,VALID,0,VALID,95.6433,VALID,0,VALID,23.0029,VALID,282,VALID,0.00195313,
2008-09-21, 00:55:05,VALID,1003.89,VALID,0,VALID,95.6509,VALID,0,VALID,23.0012,VALID,282,VALID,0,
2008-09-21, 00:56:05,VALID,1003.88,VALID,0,VALID,95.5975,VALID,0,VALID,23.0046,VALID,282,VALID,0,
2008-09-21, 00:57:05,VALID,1003.9,VALID,0,VALID,95.4831,VALID,0,VALID,22.964,VALID,282,VALID,0,
2008-09-21, 00:58:05,VALID,1003.89,VALID,0,VALID,95.4449,VALID,0,VALID,22.9073,VALID,282,VALID,0,
2008-09-21, 00:59:05,VALID,1003.9,VALID,0,VALID,95.4831,VALID,0,VALID,22.8667,VALID,282,VALID,0.460938,
2008-09-21, 01:00:05,VALID,1003.89,VALID,0,VALID,95.6662,VALID,0,VALID,22.9056,VALID,282,VALID,0.580078,
2008-09-21, 01:01:05,VALID,1003.91,VALID,0,VALID,95.895,VALID,0,VALID,22.9834,VALID,282,VALID,0.471875,
2008-09-21, 01:02:05,VALID,1003.89,VALID,0,VALID,95.8111,VALID,0,VALID,23.0224,VALID,282,VALID,0.305859,
2008-09-21, 01:03:05,VALID,1003.9,VALID,0,VALID,95.7653,VALID,0,VALID,23.0029,VALID,282,VALID,0.046875,
2008-09-21, 01:04:05,VALID,1003.91,VALID,0,VALID,95.6967,VALID,0,VALID,23.0029,VALID,282,VALID,0,
2008-09-21, 01:05:05,VALID,1003.92,VALID,0,VALID,95.6204,VALID,0,VALID,22.964,VALID,282,VALID,0.155859,
2008-09-21, 01:06:05,VALID,1003.91,VALID,0,VALID,95.6662,VALID,0.100563,VALID,23.0029,VALID,282,VALID,0.324219,
2008-09-21, 01:07:05,VALID,1003.9,VALID,0,VALID,95.7501,VALID,0,VALID,23.0206,VALID,282,VALID,0.196094,
2008-09-21, 01:08:05,VALID,1003.87,VALID,0,VALID,95.7501,VALID,0,VALID,23.0418,VALID,282,VALID,0,
2008-09-21, 01:09:05,VALID,1003.85,VALID,0,VALID,95.6662,VALID,0,VALID,23.0224,VALID,282,VALID,0.250781,
2008-09-21, 01:10:05,VALID,1003.84,VALID,0,VALID,95.7043,VALID,0,VALID,23.0224,VALID,282,VALID,0.330859,
2008-09-21, 01:11:05,VALID,1003.82,VALID,0,VALID,95.8493,VALID,0,VALID,23.1214,VALID,287,VALID,0.509766,
2008-09-21, 01:12:05,VALID,1003.78,VALID,0,VALID,95.8874,VALID,0,VALID,23.178,VALID,45,VALID,0.376172,
2008-09-21, 01:13:05,VALID,1003.73,VALID,0,VALID,95.9332,VALID,0,VALID,23.2559,VALID,48,VALID,0.291016,
2008-09-21, 01:14:05,VALID,1003.73,VALID,0,VALID,95.9103,VALID,0,VALID,23.2559,VALID,48,VALID,0.330078,
2008-09-21, 01:15:05,VALID,1003.72,VALID,0,VALID,95.8721,VALID,0,VALID,23.2364,VALID,48,VALID,0.1125,
2008-09-21, 01:16:05,VALID,1003.7,VALID,0,VALID,95.7424,VALID,0,VALID,23.1975,VALID,48,VALID,0,
2008-09-21, 01:17:05,VALID,1003.69,VALID,0,VALID,95.6585,VALID,0,VALID,23.1993,VALID,48,VALID,0,
2008-09-21, 01:18:05,VALID,1003.67,VALID,0,VALID,95.6967,VALID,0,VALID,23.178,VALID,48,VALID,0.0886719,
2008-09-21, 01:19:05,VALID,1003.68,VALID,0,VALID,95.7119,VALID,0,VALID,23.1798,VALID,80,VALID,0.0121094,
2008-09-21, 01:20:05,VALID,1003.67,VALID,0,VALID,95.8187,VALID,0,VALID,23.217,VALID,80,VALID,0.119141,
2008-09-21, 01:21:05,VALID,1003.64,VALID,0,VALID,95.7882,VALID,0,VALID,23.217,VALID,80,VALID,0.0078125,
2008-09-21, 01:22:05,VALID,1003.63,VALID,0,VALID,95.7348,VALID,0.100563,VALID,23.217,VALID,80,VALID,0.107031,
2008-09-21, 01:23:05,VALID,1003.65,VALID,0,VALID,95.7272,VALID,0,VALID,23.1975,VALID,80,VALID,0.188672,
2008-09-21, 01:24:05,VALID,1003.65,VALID,0,VALID,95.7501,VALID,0.100563,VALID,23.178,VALID,76,VALID,0.425391,
2008-09-21, 01:25:05,VALID,1003.66,VALID,0,VALID,95.7119,VALID,0,VALID,23.178,VALID,76,VALID,0.0757812,
2008-09-21, 01:26:05,VALID,1003.64,VALID,0,VALID,95.5975,VALID,0,VALID,23.1197,VALID,58,VALID,0.19375,
2008-09-21, 01:27:05,VALID,1003.61,VALID,0,VALID,95.6738,VALID,0,VALID,23.1197,VALID,27,VALID,0.346875,
2008-09-21, 01:28:05,VALID,1003.61,VALID,0,VALID,95.5517,VALID,0,VALID,23.0613,VALID,27,VALID,0.0582031,
2008-09-21, 01:29:05,VALID,1003.57,VALID,0,VALID,95.6051,VALID,0,VALID,23.0224,VALID,27,VALID,0.107031,
2008-09-21, 01:30:05,VALID,1003.56,VALID,0,VALID,95.6051,VALID,0,VALID,23.0029,VALID,27,VALID,0,
2008-09-21, 01:31:05,VALID,1003.56,VALID,0,VALID,95.6433,VALID,0,VALID,23.0029,VALID,27,VALID,0,
2008-09-21, 01:32:05,VALID,1003.55,VALID,0,VALID,95.5975,VALID,0,VALID,22.9834,VALID,27,VALID,0,
2008-09-21, 01:33:05,VALID,1003.52,VALID,0,VALID,95.6585,VALID,0,VALID,22.9834,VALID,27,VALID,0.28125,
2008-09-21, 01:34:05,VALID,1003.52,VALID,0,VALID,95.773,VALID,0,VALID,23.0224,VALID,27,VALID,0.355078,
2008-09-21, 01:35:05,VALID,1003.53,VALID,0,VALID,95.7577,VALID,0,VALID,23.0418,VALID,27,VALID,0.0757812,
2008-09-21, 01:36:05,VALID,1003.52,VALID,0,VALID,95.7501,VALID,0,VALID,23.0436,VALID,27,VALID,0,
2008-09-21, 01:37:05,VALID,1003.52,VALID,0,VALID,95.7653,VALID,0,VALID,23.0825,VALID,27,VALID,0.147656,
2008-09-21, 01:38:05,VALID,1003.49,VALID,0,VALID,95.7959,VALID,0,VALID,23.0613,VALID,27,VALID,0.425781,
2008-09-21, 01:39:05,VALID,1003.49,VALID,0,VALID,95.8035,VALID,0,VALID,23.0807,VALID,28,VALID,0.528516,
2008-09-21, 01:40:05,VALID,1003.49,VALID,0,VALID,95.8035,VALID,0,VALID,23.0807,VALID,28,VALID,0.275,
2008-09-21, 01:41:05,VALID,1003.46,VALID,0,VALID,95.7806,VALID,0.100563,VALID,23.1002,VALID,33,VALID,0.349219,
2008-09-21, 01:42:05,VALID,1003.48,VALID,0,VALID,95.8035,VALID,0,VALID,23.1197,VALID,40,VALID,0.352734,
2008-09-21, 01:43:05,VALID,1003.45,VALID,0,VALID,95.8645,VALID,0,VALID,23.1391,VALID,29,VALID,0.475,
2008-09-21, 01:44:05,VALID,1003.45,VALID,0,VALID,95.9103,VALID,0,VALID,23.178,VALID,32,VALID,0.433594,
2008-09-21, 01:45:05,VALID,1003.46,VALID,0,VALID,95.9713,VALID,0,VALID,23.2948,VALID,31,VALID,0.686328,
2008-09-21, 01:46:05,VALID,1003.4,VALID,0,VALID,95.9942,VALID,0.100563,VALID,23.3532,VALID,24,VALID,0.329688,
2008-09-21, 01:47:05,VALID,1003.44,VALID,0,VALID,95.9789,VALID,0,VALID,23.3744,VALID,24,VALID,0.317187,
2008-09-21, 01:48:05,VALID,1003.44,VALID,0,VALID,95.9561,VALID,0,VALID,23.3744,VALID,24,VALID,0.233984,
2008-09-21, 01:49:05,VALID,1003.43,VALID,0,VALID,95.8874,VALID,0,VALID,23.3143,VALID,24,VALID,0.247656,
2008-09-21, 01:50:05,VALID,1003.42,VALID,0,VALID,95.6662,VALID,0,VALID,23.2364,VALID,24,VALID,0.25625,
2008-09-21, 01:51:05,VALID,1003.44,VALID,0,VALID,95.6662,VALID,0,VALID,23.217,VALID,24,VALID,0.105078,
2008-09-21, 01:52:05,VALID,1003.43,VALID,0,VALID,95.6814,VALID,0,VALID,23.1975,VALID,24,VALID,0,
2008-09-21, 01:53:05,VALID,1003.42,VALID,0,VALID,95.6433,VALID,0,VALID,23.178,VALID,24,VALID,0,
2008-09-21, 01:54:05,VALID,1003.42,VALID,0,VALID,95.6738,VALID,0,VALID,23.178,VALID,24,VALID,0.130078,
2008-09-21, 01:55:05,VALID,1003.44,VALID,0,VALID,95.6662,VALID,0,VALID,23.1374,VALID,24,VALID,0.00820312,
2008-09-21, 01:56:05,VALID,1003.43,VALID,0,VALID,95.689,VALID,0,VALID,23.1603,VALID,24,VALID,0.145703,
2008-09-21, 01:57:05,VALID,1003.43,VALID,0,VALID,95.7577,VALID,0,VALID,23.178,VALID,24,VALID,0,
2008-09-21, 01:58:05,VALID,1003.41,VALID,0,VALID,95.7272,VALID,0.100563,VALID,23.178,VALID,24,VALID,0.352734,
2008-09-21, 01:59:05,VALID,1003.41,VALID,0,VALID,95.7882,VALID,0.100563,VALID,23.1975,VALID,62,VALID,0.586719,
2008-09-21, 02:00:05,VALID,1003.4,VALID,0,VALID,95.834,VALID,0,VALID,23.2364,VALID,62,VALID,0.0957031,
2008-09-21, 02:01:05,VALID,1003.37,VALID,0,VALID,95.7959,VALID,0,VALID,23.2364,VALID,62,VALID,0.0234375,
2008-09-21, 02:02:05,VALID,1003.39,VALID,0,VALID,95.7806,VALID,0,VALID,23.1957,VALID,62,VALID,0,
2008-09-21, 02:03:05,VALID,1003.39,VALID,0,VALID,95.689,VALID,0.100563,VALID,23.178,VALID,62,VALID,0,
2008-09-21, 02:04:05,VALID,1003.36,VALID,0,VALID,95.6967,VALID,0,VALID,23.1586,VALID,62,VALID,0,
2008-09-21, 02:05:05,VALID,1003.37,VALID,0,VALID,95.6585,VALID,0,VALID,23.1197,VALID,62,VALID,0.009375,
2008-09-21, 02:06:05,VALID,1003.37,VALID,0,VALID,95.773,VALID,0,VALID,23.1391,VALID,62,VALID,0.111328,
2008-09-21, 02:07:05,VALID,1003.36,VALID,0,VALID,95.7653,VALID,0,VALID,23.1391,VALID,62,VALID,0,
2008-09-21, 02:08:05,VALID,1003.37,VALID,0,VALID,95.7501,VALID,0,VALID,23.1391,VALID,62,VALID,0,
2008-09-21, 02:09:05,VALID,1003.36,VALID,0,VALID,95.7653,VALID,0.100563,VALID,23.1374,VALID,62,VALID,0.00273437,
2008-09-21, 02:10:05,VALID,1003.36,VALID,0,VALID,95.8874,VALID,0,VALID,23.178,VALID,62,VALID,0.0300781,
2008-09-21, 02:11:05,VALID,1003.39,VALID,0,VALID,95.7882,VALID,0,VALID,23.178,VALID,62,VALID,0.000390625,
2008-09-21, 02:12:05,VALID,1003.38,VALID,0,VALID,95.7424,VALID,0.100563,VALID,23.1586,VALID,62,VALID,0,
2008-09-21, 02:13:05,VALID,1003.37,VALID,0,VALID,95.7043,VALID,0,VALID,23.1586,VALID,62,VALID,0,
2008-09-21, 02:14:05,VALID,1003.35,VALID,0,VALID,95.6814,VALID,0,VALID,23.1179,VALID,62,VALID,0,
2008-09-21, 02:15:05,VALID,1003.38,VALID,0,VALID,95.773,VALID,0,VALID,23.1197,VALID,62,VALID,0.234375,
2008-09-21, 02:16:05,VALID,1003.39,VALID,0,VALID,95.7653,VALID,0,VALID,23.1586,VALID,58,VALID,0.202344,
2008-09-21, 02:17:05,VALID,1003.44,VALID,0,VALID,95.773,VALID,0,VALID,23.1586,VALID,9,VALID,0.362109,
2008-09-21, 02:18:05,VALID,1003.43,VALID,0,VALID,95.7196,VALID,0,VALID,23.1391,VALID,9,VALID,0.322266,
2008-09-21, 02:19:05,VALID,1003.42,VALID,0,VALID,95.8493,VALID,0,VALID,23.1586,VALID,357,VALID,0.507031,
2008-09-21, 02:20:05,VALID,1003.48,VALID,0,VALID,95.8493,VALID,0,VALID,23.178,VALID,356,VALID,0.0148437,
2008-09-21, 02:21:05,VALID,1003.42,VALID,0,VALID,95.7501,VALID,0,VALID,23.1993,VALID,356,VALID,0.535937,
2008-09-21, 02:22:05,VALID,1003.44,VALID,0,VALID,95.7348,VALID,0,VALID,23.1391,VALID,356,VALID,0,
2008-09-21, 02:23:05,VALID,1003.42,VALID,0,VALID,95.7272,VALID,0.100563,VALID,23.1391,VALID,356,VALID,0,
2008-09-21, 02:24:05,VALID,1003.42,VALID,0,VALID,95.7577,VALID,0,VALID,23.1603,VALID,356,VALID,0.527344,
2008-09-21, 02:25:05,VALID,1003.43,VALID,0,VALID,95.7501,VALID,0,VALID,23.1409,VALID,354,VALID,0.601172,
2008-09-21, 02:26:05,VALID,1003.4,VALID,0,VALID,95.9179,VALID,0,VALID,23.1975,VALID,346,VALID,0.774219,
2008-09-21, 02:27:05,VALID,1003.4,VALID,0,VALID,95.9332,VALID,0,VALID,23.2364,VALID,342,VALID,0.530859,
2008-09-21, 02:28:05,VALID,1003.43,VALID,0,VALID,95.8874,VALID,0,VALID,23.2364,VALID,345,VALID,0.458594,
2008-09-21, 02:29:05,VALID,1003.42,VALID,0,VALID,95.8187,VALID,0,VALID,23.217,VALID,316,VALID,0.546875,
2008-09-21, 02:30:05,VALID,1003.43,VALID,0,VALID,95.7501,VALID,0.100563,VALID,23.1975,VALID,308,VALID,0.0253906,
2008-09-21, 02:31:05,VALID,1003.46,VALID,0,VALID,95.6967,VALID,0,VALID,23.1586,VALID,308,VALID,0,
2008-09-21, 02:32:05,VALID,1003.48,VALID,0,VALID,95.6662,VALID,0,VALID,23.1391,VALID,308,VALID,0,
2008-09-21, 02:33:05,VALID,1003.5,VALID,0,VALID,95.6662,VALID,0,VALID,23.1197,VALID,308,VALID,0.241406,
2008-09-21, 02:34:05,VALID,1003.52,VALID,0,VALID,95.7119,VALID,0,VALID,23.1002,VALID,308,VALID,0.04375,
2008-09-21, 02:35:05,VALID,1003.5,VALID,0,VALID,95.7806,VALID,0,VALID,23.1197,VALID,308,VALID,0.361719,
2008-09-21, 02:36:05,VALID,1003.51,VALID,0,VALID,95.8569,VALID,0,VALID,23.1391,VALID,308,VALID,0.280859,
2008-09-21, 02:37:05,VALID,1003.51,VALID,0,VALID,95.8493,VALID,0,VALID,23.178,VALID,342,VALID,0.5875,
2008-09-21, 02:38:05,VALID,1003.5,VALID,0,VALID,95.7119,VALID,0.100563,VALID,23.1391,VALID,348,VALID,0.638281,
2008-09-21, 02:39:05,VALID,1003.52,VALID,0,VALID,95.6967,VALID,0,VALID,23.1002,VALID,349,VALID,0.654297,
2008-09-21, 02:40:05,VALID,1003.54,VALID,0,VALID,95.7119,VALID,0,VALID,23.1019,VALID,349,VALID,0.394141,
2008-09-21, 02:41:05,VALID,1003.55,VALID,0,VALID,95.7119,VALID,0.100563,VALID,23.0613,VALID,349,VALID,0.598047,
2008-09-21, 02:42:05,VALID,1003.53,VALID,0,VALID,95.7577,VALID,0,VALID,23.0613,VALID,349,VALID,0.555078,
2008-09-21, 02:43:05,VALID,1003.54,VALID,0,VALID,95.7653,VALID,0,VALID,23.0418,VALID,357,VALID,0.518359,
2008-09-21, 02:44:05,VALID,1003.52,VALID,0,VALID,95.7348,VALID,0,VALID,23.0224,VALID,357,VALID,0.342578,
2008-09-21, 02:45:05,VALID,1003.49,VALID,0,VALID,95.8187,VALID,0,VALID,23.0224,VALID,357,VALID,0.554688,
2008-09-21, 02:46:05,VALID,1003.48,VALID,0,VALID,95.8798,VALID,0,VALID,23.0613,VALID,349,VALID,0.383984,
2008-09-21, 02:47:05,VALID,1003.49,VALID,0,VALID,95.8569,VALID,0,VALID,23.0825,VALID,356,VALID,0.508594,
2008-09-21, 02:48:05,VALID,1003.49,VALID,0,VALID,95.773,VALID,0,VALID,23.0418,VALID,356,VALID,0.114453,
2008-09-21, 02:49:05,VALID,1003.48,VALID,0,VALID,95.7882,VALID,0,VALID,23.0224,VALID,356,VALID,0.266406,
2008-09-21, 02:50:04,VALID,1003.49,VALID,0,VALID,95.7501,VALID,0,VALID,23.0029,VALID,356,VALID,0.0515625,
2008-09-21, 02:51:04,VALID,1003.47,VALID,0,VALID,95.689,VALID,0,VALID,22.964,VALID,356,VALID,0.246484,
2008-09-21, 02:52:04,VALID,1003.49,VALID,0,VALID,95.7577,VALID,0,VALID,22.9445,VALID,356,VALID,0.408203,
2008-09-21, 02:53:04,VALID,1003.47,VALID,0,VALID,95.7501,VALID,0,VALID,22.9657,VALID,356,VALID,0.610156,
2008-09-21, 02:54:04,VALID,1003.49,VALID,0,VALID,95.9103,VALID,0,VALID,22.9834,VALID,354,VALID,0.354297,
2008-09-21, 02:55:04,VALID,1003.47,VALID,0,VALID,95.8416,VALID,0,VALID,22.9852,VALID,354,VALID,0.320313,
2008-09-21, 02:56:04,VALID,1003.5,VALID,0,VALID,95.773,VALID,0,VALID,22.9445,VALID,354,VALID,0.471484,
2008-09-21, 02:57:04,VALID,1003.52,VALID,0,VALID,95.9408,VALID,0,VALID,22.964,VALID,354,VALID,0.373047,
2008-09-21, 02:58:04,VALID,1003.54,VALID,0,VALID,95.9103,VALID,0,VALID,22.9834,VALID,354,VALID,0.514844,
2008-09-21, 02:59:04,VALID,1003.55,VALID,0,VALID,95.8035,VALID,0,VALID,22.964,VALID,354,VALID,0.525781,
2008-09-21, 03:00:04,VALID,1003.55,VALID,0,VALID,95.8493,VALID,0,VALID,22.964,VALID,353,VALID,0.850781,
2008-09-21, 03:01:04,VALID,1003.56,VALID,0,VALID,95.9255,VALID,0,VALID,22.9852,VALID,353,VALID,0.516016,
2008-09-21, 03:02:04,VALID,1003.58,VALID,0,VALID,95.9408,VALID,0,VALID,22.9852,VALID,353,VALID,0.506641,
2008-09-21, 03:03:04,VALID,1003.55,VALID,0,VALID,95.9561,VALID,0,VALID,23.0029,VALID,353,VALID,0.696875,
2008-09-21, 03:04:04,VALID,1003.53,VALID,0,VALID,95.9789,VALID,0,VALID,23.063,VALID,336,VALID,0.657422,
2008-09-21, 03:05:04,VALID,1003.55,VALID,0,VALID,95.9561,VALID,0,VALID,23.0224,VALID,348,VALID,0.527344,
2008-09-21, 03:06:04,VALID,1003.52,VALID,0,VALID,95.9561,VALID,0,VALID,23.0418,VALID,348,VALID,0.460938,
2008-09-21, 03:07:04,VALID,1003.49,VALID,0,VALID,95.8493,VALID,0,VALID,23.0046,VALID,348,VALID,0.336328,
2008-09-21, 03:08:04,VALID,1003.5,VALID,0,VALID,95.7959,VALID,0,VALID,22.964,VALID,351,VALID,0.210938,
2008-09-21, 03:09:04,VALID,1003.5,VALID,0,VALID,95.7119,VALID,0,VALID,22.9268,VALID,351,VALID,0.306641,
2008-09-21, 03:10:04,VALID,1003.5,VALID,0,VALID,95.8035,VALID,0,VALID,22.8861,VALID,352,VALID,0.258594,
2008-09-21, 03:11:04,VALID,1003.52,VALID,0,VALID,95.7882,VALID,0,VALID,22.8861,VALID,357,VALID,0.152734,
2008-09-21, 03:12:04,VALID,1003.53,VALID,0,VALID,95.8416,VALID,0,VALID,22.8667,VALID,19,VALID,0.432813,
2008-09-21, 03:13:04,VALID,1003.55,VALID,0,VALID,95.8493,VALID,0,VALID,22.9073,VALID,19,VALID,0.343359,
2008-09-21, 03:14:04,VALID,1003.55,VALID,0,VALID,95.9713,VALID,0,VALID,22.9463,VALID,24,VALID,0.492969,
2008-09-21, 03:15:04,VALID,1003.55,VALID,0,VALID,96.0018,VALID,0,VALID,23.0224,VALID,28,VALID,0.629297,
2008-09-21, 03:16:04,VALID,1003.58,VALID,0,VALID,96.0171,VALID,0,VALID,23.0418,VALID,29,VALID,0.261719,
2008-09-21, 03:17:04,VALID,1003.55,VALID,0,VALID,96.0476,VALID,0,VALID,23.1002,VALID,29,VALID,0.546484,
2008-09-21, 03:18:04,VALID,1003.57,VALID,0,VALID,95.9942,VALID,0,VALID,23.0418,VALID,29,VALID,0.619922,
2008-09-21, 03:19:04,VALID,1003.56,VALID,0,VALID,96.0247,VALID,0,VALID,23.1586,VALID,29,VALID,0.481641,
2008-09-21, 03:20:04,VALID,1003.56,VALID,0,VALID,96.1086,VALID,0,VALID,23.3532,VALID,29,VALID,0.791406,
2008-09-21, 03:21:04,VALID,1003.62,VALID,0,VALID,96.1239,VALID,0,VALID,23.3939,VALID,29,VALID,0.562891,
2008-09-21, 03:22:04,VALID,1003.62,VALID,0,VALID,96.1239,VALID,0,VALID,23.4116,VALID,29,VALID,0.371094,
2008-09-21, 03:23:04,VALID,1003.66,VALID,0,VALID,96.1392,VALID,0,VALID,23.4912,VALID,29,VALID,0.351172,
2008-09-21, 03:24:04,VALID,1003.66,VALID,0,VALID,96.1544,VALID,0,VALID,23.5284,VALID,33,VALID,0.433203,
2008-09-21, 03:25:04,VALID,1003.67,VALID,0,VALID,96.1086,VALID,0,VALID,23.4505,VALID,33,VALID,0.530859,
2008-09-21, 03:26:04,VALID,1003.67,VALID,0,VALID,96.0552,VALID,0,VALID,23.4311,VALID,33,VALID,0.491406,
2008-09-21, 03:27:04,VALID,1003.69,VALID,0,VALID,96.0552,VALID,0,VALID,23.5107,VALID,33,VALID,0.314453,
2008-09-21, 03:28:04,VALID,1003.69,VALID,0,VALID,96.0552,VALID,0,VALID,23.4682,VALID,32,VALID,0.376953,
2008-09-21, 03:29:04,VALID,1003.66,VALID,0,VALID,95.9637,VALID,0,VALID,23.3939,VALID,32,VALID,0.493359,
2008-09-21, 03:30:04,VALID,1003.7,VALID,0,VALID,95.9408,VALID,0,VALID,23.3921,VALID,31,VALID,0.594922,
2008-09-21, 03:31:04,VALID,1003.71,VALID,0,VALID,95.9408,VALID,0,VALID,23.4116,VALID,31,VALID,0.096875,
2008-09-21, 03:32:04,VALID,1003.73,VALID,0,VALID,95.9103,VALID,0,VALID,23.3727,VALID,31,VALID,0.334375,
2008-09-21, 03:33:04,VALID,1003.75,VALID,0,VALID,95.9408,VALID,0,VALID,23.4523,VALID,31,VALID,0.328516,
2008-09-21, 03:34:04,VALID,1003.77,VALID,0,VALID,95.9713,VALID,0,VALID,23.4505,VALID,31,VALID,0.444531,
2008-09-21, 03:35:04,VALID,1003.75,VALID,0,VALID,95.9942,VALID,0,VALID,23.5302,VALID,31,VALID,0.323828,
2008-09-21, 03:36:04,VALID,1003.76,VALID,0,VALID,96.0095,VALID,0,VALID,23.5302,VALID,24,VALID,0.488281,
2008-09-21, 03:37:04,VALID,1003.78,VALID,0,VALID,95.9866,VALID,0,VALID,23.5107,VALID,24,VALID,0.465234,
2008-09-21, 03:38:04,VALID,1003.76,VALID,0,VALID,95.9484,VALID,0,VALID,23.5089,VALID,24,VALID,0.601172,
2008-09-21, 03:39:04,VALID,1003.75,VALID,0,VALID,95.9561,VALID,0,VALID,23.4894,VALID,15,VALID,0.941016,
2008-09-21, 03:40:04,VALID,1003.74,VALID,0,VALID,96.0476,VALID,0,VALID,23.6841,VALID,20,VALID,0.713281,
2008-09-21, 03:41:04,VALID,1003.71,VALID,0,VALID,96.0629,VALID,0,VALID,23.7425,VALID,23,VALID,0.749219,
2008-09-21, 03:42:04,VALID,1003.71,VALID,0,VALID,96.0781,VALID,0,VALID,23.7814,VALID,24,VALID,0.301172,
2008-09-21, 03:43:04,VALID,1003.71,VALID,0,VALID,96.0705,VALID,0,VALID,23.8203,VALID,25,VALID,0.555078,
2008-09-21, 03:44:04,VALID,1003.71,VALID,0,VALID,96.0781,VALID,0.100563,VALID,23.9195,VALID,32,VALID,0.347656,
2008-09-21, 03:45:04,VALID,1003.72,VALID,0,VALID,96.0934,VALID,0.100563,VALID,23.9937,VALID,67,VALID,0.335547,